GW5738 Weather Reports


time (UTC)temp
F
wind
direction
speed
knots
gust
knots
rain 1hr
in
rain 24hr
in
rain mn
in
humidity
%
barometer
mb
20260508104637 62 134 4.3 12.2 0.00 0.00 0.05 77 1011.8
20260508104552 63 165 12.2 14.8 0.00 0.00 0.05 77 1015.2
20260508104136 62 134 8.7 11.3 0.00 0.00 0.05 80 1011.9
20260508104052 62 153 7.8 12.2 0.00 0.00 0.05 78 1015.2
20260508103636 62 181 7.8 12.2 0.00 0.00 0.05 80 1012.0
20260508103551 62 152 8.7 11.3 0.00 0.00 0.05 80 1015.2
20260508103137 62 195 5.2 9.6 0.00 0.00 0.05 81 1012.0
20260508103053 62 143 7.8 12.2 0.00 0.00 0.05 81 1015.2
20260508102637 62 155 10.4 15.6 0.00 0.00 0.05 81 1011.9
20260508102552 62 171 7.8 12.2 0.00 0.00 0.05 81 1015.2
20260508102137 63 155 5.2 15.6 0.00 0.00 0.05 80 1012.0
20260508102052 63 153 11.3 15.6 0.00 0.00 0.05 80 1015.2
20260508101637 62 156 9.6 11.3 0.00 0.00 0.05 81 1011.8
20260508101552 62 130 5.2 10.4 0.00 0.00 0.05 82 1015.2
20260508101137 62 114 9.6 15.6 0.00 0.00 0.05 81 1011.6
20260508101052 62 139 5.2 13.0 0.00 0.00 0.05 81 1014.9
20260508100636 62 161 9.6 13.9 0.00 0.00 0.05 82 1011.7
20260508100554 62 118 9.6 12.2 0.00 0.00 0.05 81 1015.2
20260508100136 62 175 6.1 11.3 0.00 0.00 0.05 83 1011.8
20260508100052 62 200 6.1 12.2 0.00 0.00 0.05 82 1015.2
20260508095637 62 132 12.2 13.0 0.00 0.00 0.05 84 1012.0
20260508095553 62 158 7.8 11.3 0.00 0.00 0.05 83 1015.2
20260508095136 62 152 7.8 12.2 0.00 0.00 0.05 84 1012.1
20260508095052 62 117 8.7 13.9 0.00 0.00 0.05 84 1015.6
20260508094636 62 147 7.8 12.2 0.00 0.00 0.05 84 1012.1
20260508094554 62 143 7.0 14.8 0.00 0.00 0.05 85 1015.2
20260508094136 61 133 7.8 15.6 0.00 0.00 0.05 86 1011.9
20260508094053 61 114 9.6 12.2 0.00 0.00 0.05 85 1015.2
20260508093636 61 143 8.7 17.4 0.00 0.00 0.05 87 1011.8
20260508093552 61 167 13.9 14.8 0.00 0.00 0.05 86 1015.2
20260508093137 61 145 12.2 13.9 0.00 0.00 0.05 87 1011.7
20260508093054 61 141 7.0 13.0 0.00 0.00 0.05 86 1015.2
20260508092636 61 145 12.2 13.9 0.00 0.00 0.05 85 1011.8
20260508092554 62 167 12.2 15.6 0.00 0.00 0.05 85 1015.2
20260508092137 62 146 11.3 14.8 0.00 0.00 0.05 84 1011.8
20260508092052 62 145 12.2 14.8 0.00 0.00 0.05 84 1015.2
20260508091637 63 154 11.3 17.4 0.00 0.00 0.05 82 1011.6
20260508091552 63 147 5.2 13.9 0.00 0.00 0.05 82 1014.9
20260508091137 64 154 11.3 14.8 0.00 0.00 0.05 79 1011.5
20260508091053 64 177 13.0 15.6 0.00 0.00 0.05 78 1014.9
20260508090637 64 113 4.3 6.1 0.00 0.00 0.05 79 1011.4
20260508090552 64 136 5.2 6.1 0.00 0.00 0.05 79 1014.9
20260508090137 64 113 4.3 4.3 0.00 0.00 0.05 79 1011.4
20260508090054 64 88 1.7 6.1 0.00 0.00 0.05 79 1014.6
20260508085636 64 161 3.5 8.7 0.00 0.00 0.05 79 1011.4
20260508085554 64 151 3.5 8.7 0.00 0.00 0.05 78 1014.9
20260508085137 65 140 7.0 11.3 0.00 0.00 0.05 77 1011.4
20260508085057 65 165 3.5 7.8 0.00 0.00 0.05 77 1014.9
20260508084637 65 121 3.5 11.3 0.00 0.00 0.05 75 1011.2
20260508084554 65 127 7.8 11.3 0.00 0.00 0.05 76 1014.6
20260508084136 65 150 4.3 11.3 0.00 0.00 0.05 74 1011.2
20260508084051 65 143 3.5 8.7 0.00 0.00 0.05 75 1014.6
20260508083636 66 150 4.3 11.3 0.00 0.00 0.05 74 1011.2
20260508083550 66 157 7.0 7.8 0.00 0.00 0.05 75 1014.6
20260508083137 65 130 3.5 6.1 0.00 0.00 0.05 77 1011.1
20260508083052 65 120 4.3 9.6 0.00 0.00 0.05 76 1014.6
20260508082636 64 102 4.3 6.1 0.00 0.00 0.05 78 1011.3
20260508082550 64 204 2.6 7.8 0.00 0.00 0.05 77 1014.6
20260508082136 64 93 4.3 10.4 0.00 0.00 0.05 78 1011.0
20260508082052 64 104 3.5 7.8 0.00 0.00 0.05 78 1014.2
20260508081636 64 114 8.7 9.6 0.00 0.00 0.05 77 1011.1
20260508081551 64 94 7.8 8.7 0.00 0.00 0.05 77 1014.6
20260508081136 64 106 7.0 9.6 0.00 0.00 0.05 77 1010.9
20260508081052 64 111 8.7 9.6 0.00 0.00 0.05 77 1014.2
20260508080637 64 106 7.0 11.3 0.00 0.00 0.05 77 1011.0
20260508080552 64 108 5.2 11.3 0.00 0.00 0.05 77 1014.2
20260508080136 64 104 3.5 7.8 0.00 0.00 0.05 77 1010.7
20260508080052 64 100 6.1 8.7 0.00 0.00 0.05 77 1014.2
20260508075637 63 99 5.2 9.6 0.00 0.00 0.05 78 1010.9
20260508075552 63 140 6.1 9.6 0.00 0.00 0.05 78 1014.2
20260508075136 63 99 0.9 9.6 0.00 0.00 0.05 79 1011.0
20260508075050 63 71 6.1 7.0 0.00 0.00 0.05 79 1014.2
20260508074636 63 154 5.2 5.2 0.00 0.00 0.05 80 1010.9
20260508074550 63 98 1.7 5.2 0.00 0.00 0.05 80 1014.2
20260508074136 63 120 2.6 7.0 0.00 0.00 0.05 80 1010.8
20260508074051 63 96 0.9 7.8 0.00 0.00 0.05 80 1014.2
20260508073637 62 193 0.9 7.0 0.00 0.00 0.05 81 1010.9
20260508073552 63 121 3.5 7.0 0.00 0.00 0.05 81 1014.2
20260508073137 62 135 4.3 7.0 0.00 0.00 0.05 81 1010.8
20260508073052 62 163 5.2 7.8 0.00 0.00 0.05 81 1014.2
20260508072636 63 48 0.9 4.3 0.00 0.00 0.05 82 1011.0
20260508072552 63 122 9.6 11.3 0.00 0.00 0.05 82 1014.2
20260508072136 62 48 0.9 4.3 0.00 0.00 0.05 82 1010.8
20260508072052 62 120 3.5 4.3 0.00 0.00 0.05 82 1014.2
20260508071636 62 144 0.9 3.5 0.00 0.00 0.05 82 1011.1
20260508071550 62 86 2.6 3.5 0.00 0.00 0.05 82 1014.2
20260508071136 62 144 1.7 3.5 0.00 0.00 0.05 82 1010.9
20260508071053 62 35 1.7 5.2 0.00 0.00 0.05 81 1014.2
20260508070637 62 100 1.7 4.3 0.00 0.00 0.05 81 1010.8
20260508070554 62 205 1.7 4.3 0.00 0.00 0.05 81 1014.2
20260508070136 62 118 2.6 5.2 0.00 0.00 0.05 80 1010.6
20260508070050 62 79 2.6 6.1 0.00 0.00 0.05 80 1014.2
20260508065636 62 133 0.9 5.2 0.00 0.00 0.05 80 1011.0
20260508065551 63 116 2.6 7.0 0.00 0.00 0.05 80 1014.2
20260508065136 62 125 3.5 6.1 0.00 0.00 0.05 81 1010.8
20260508065052 62 294 0.0 7.0 0.00 0.00 0.05 80 1014.2
20260508064637 62 147 3.5 6.1 0.00 0.00 0.05 81 1010.8
20260508064555 62 104 6.1 6.1 0.00 0.00 0.05 82 1013.9
20260508064137 62 98 3.5 5.2 0.00 0.00 0.05 83 1010.6
20260508064054 62 104 2.6 3.5 0.00 0.00 0.05 83 1013.9
20260508063637 62 87 4.3 6.1 0.00 0.00 0.05 83 1010.7
20260508063555 62 72 3.5 3.5 0.00 0.00 0.05 83 1013.9
20260508063136 62 87 4.3 6.1 0.00 0.00 0.05 83 1010.7
20260508063052 62 92 3.5 5.2 0.00 0.00 0.05 82 1013.9
20260508062637 62 133 0.0 4.3 0.00 0.00 0.05 83 1010.7
20260508062553 62 70 4.3 4.3 0.00 0.00 0.05 82 1013.9
20260508062136 62 107 3.5 4.3 0.00 0.00 0.05 84 1010.6
20260508062054 62 100 2.6 4.3 0.00 0.00 0.05 83 1013.9
20260508061636 62 102 1.7 5.2 0.00 0.00 0.05 84 1010.6
20260508061553 62 122 2.6 4.3 0.00 0.00 0.05 84 1013.9
20260508061137 62 102 1.7 5.2 0.00 0.00 0.05 84 1010.4
20260508061052 62 97 2.6 6.1 0.00 0.00 0.05 84 1013.9
20260508060636 61 66 2.6 4.3 0.00 0.00 0.05 84 1010.4
20260508060553 61 108 2.6 7.0 0.00 0.00 0.05 84 1013.9
20260508060137 61 110 3.5 6.1 0.00 0.00 0.05 84 1010.6
20260508060053 61 73 1.7 4.3 0.00 0.00 0.05 84 1013.9
20260508055636 61 321 0.9 6.1 0.00 0.00 0.05 84 1010.4
20260508055552 61 51 3.5 4.3 0.00 0.00 0.05 85 1013.9
20260508055136 60 321 0.9 4.3 0.00 0.00 0.05 85 1010.2
20260508055052 60 318 1.7 4.3 0.00 0.00 0.05 85 1013.5
20260508054636 60 94 1.7 4.3 0.00 0.00 0.05 85 1010.1
20260508054554 60 74 2.6 4.3 0.00 0.00 0.05 85 1013.2
20260508054136 60 94 1.7 4.3 0.00 0.00 0.05 85 1010.0
20260508054052 60 224 1.7 5.2 0.00 0.00 0.05 85 1013.2
20260508053636 60 110 2.6 4.3 0.00 0.00 0.05 86 1009.9
20260508053552 60 100 3.5 4.3 0.00 0.00 0.05 86 1013.2
20260508053137 59 73 3.5 4.3 0.00 0.00 0.05 86 1009.8
20260508053052 60 115 2.6 5.2 0.00 0.00 0.05 86 1013.2
20260508052636 59 234 0.9 3.5 0.00 0.00 0.05 86 1009.8
20260508052552 59 100 2.6 3.5 0.00 0.00 0.05 86 1013.2
20260508052136 59 234 0.9 3.5 0.00 0.00 0.05 87 1009.8
20260508052054 59 122 0.9 6.1 0.00 0.00 0.05 86 1013.2
20260508051636 59 0 0.0 2.6 0.00 0.00 0.05 87 1009.7
20260508051552 59 113 1.7 3.5 0.00 0.00 0.05 87 1013.2
20260508051136 59 55 1.7 2.6 0.00 0.00 0.05 88 1009.5
20260508051052 58 114 3.5 3.5 0.00 0.00 0.05 88 1012.9
20260508050636 58 36 2.6 2.6 0.00 0.00 0.05 88 1009.7
20260508050551 58 50 2.6 2.6 0.00 0.00 0.05 88 1012.9
20260508050136 58 36 2.6 2.6 0.00 0.00 0.05 88 1009.6
20260508050054 58 81 2.6 4.3 0.00 0.00 0.05 88 1012.9
20260508045636 58 92 2.6 2.6 0.00 0.00 0.05 89 1009.5
20260508045550 58 88 0.9 3.5 0.00 0.00 0.05 89 1012.9
20260508045136 58 92 2.6 6.1 0.00 0.00 0.05 89 1009.3
20260508045050 58 100 4.3 6.1 0.00 0.00 0.05 89 1012.9
20260508044637 58 69 2.6 5.2 0.00 0.00 0.05 90 1009.4
20260508044551 57 60 3.5 3.5 0.00 0.00 0.05 89 1012.9
20260508044136 57 69 2.6 5.2 0.00 0.00 0.05 90 1009.4
20260508044050 57 80 1.7 4.3 0.00 0.00 0.05 90 1012.9
20260508043637 57 99 3.5 4.3 0.00 0.00 0.05 90 1009.4
20260508043551 57 62 2.6 5.2 0.00 0.00 0.05 90 1012.9
20260508043136 57 99 3.5 4.3 0.00 0.00 0.05 91 1009.5
20260508043052 57 47 0.9 4.3 0.00 0.00 0.05 91 1012.9
20260508042636 57 73 0.9 5.2 0.00 0.00 0.05 91 1009.4
20260508042551 57 88 2.6 4.3 0.00 0.00 0.05 91 1012.9
20260508042136 57 73 0.9 5.2 0.00 0.00 0.05 91 1009.4
20260508042051 57 83 2.6 3.5 0.00 0.00 0.05 91 1012.9
20260508041636 57 91 2.6 3.5 0.00 0.00 0.05 91 1009.3
20260508041552 57 63 2.6 4.3 0.00 0.00 0.05 91 1012.5
20260508041136 57 107 2.6 5.2 0.00 0.00 0.05 91 1009.4
20260508041054 57 130 0.0 4.3 0.00 0.00 0.05 91 1012.9
20260508040636 57 97 2.6 4.3 0.00 0.00 0.05 91 1009.4
20260508040552 57 89 2.6 5.2 0.00 0.00 0.05 91 1012.9
20260508040137 57 97 2.6 4.3 0.00 0.00 0.05 91 1009.2
20260508040053 57 108 2.6 4.3 0.00 0.00 0.05 91 1012.9
20260508035636 57 150 1.7 6.1 0.00 0.00 0.05 91 1009.4
20260508035554 57 107 2.6 4.3 0.00 0.00 0.05 91 1012.9
20260508035136 57 105 4.3 4.3 0.00 0.00 0.05 91 1009.4
20260508035051 57 103 3.5 5.2 0.00 0.00 0.05 91 1012.5
20260508034636 57 105 5.2 5.2 0.00 0.00 0.05 91 1009.2
20260508034550 57 86 1.7 5.2 0.00 0.00 0.05 91 1012.5
20260508034137 57 105 2.6 5.2 0.00 0.00 0.05 91 1009.3
20260508034050 57 121 2.6 5.2 0.00 0.00 0.05 91 1012.9
20260508033636 57 190 0.9 5.2 0.00 0.00 0.05 91 1009.2
20260508033552 57 86 2.6 4.3 0.00 0.00 0.05 91 1012.5
20260508033136 57 102 4.3 4.3 0.00 0.00 0.05 92 1009.1
20260508033052 57 77 1.7 5.2 0.00 0.00 0.05 91 1012.5
20260508032636 57 94 2.6 4.3 0.00 0.00 0.05 92 1009.2
20260508032552 57 103 4.3 4.3 0.00 0.00 0.05 92 1012.5
20260508032136 57 94 2.6 4.3 0.00 0.00 0.05 92 1009.2
20260508032059 57 96 2.6 4.3 0.00 0.00 0.05 92 1012.5
20260508031636 57 101 1.7 3.5 0.00 0.00 0.05 92 1009.2
20260508031551 57 76 2.6 4.3 0.00 0.00 0.05 92 1012.5
20260508031136 57 80 2.6 5.2 0.00 0.00 0.05 92 1009.1
20260508031051 57 110 0.0 3.5 0.00 0.00 0.05 92 1012.5
20260508030636 57 68 2.6 5.2 0.00 0.00 0.05 92 1008.9
20260508030552 57 81 2.6 5.2 0.00 0.00 0.05 92 1012.2
20260508030136 57 42 1.7 7.0 0.00 0.00 0.05 92 1009.1
20260508030054 57 75 2.6 7.0 0.00 0.00 0.05 92 1012.5
20260508025636 57 54 3.5 4.3 0.00 0.00 0.05 92 1008.8
20260508025551 57 47 4.3 5.2 0.00 0.00 0.05 92 1012.5
20260508025136 57 70 4.3 4.3 0.00 0.00 0.05 92 1009.0
20260508025050 57 84 2.6 4.3 0.00 0.00 0.05 92 1012.5
20260508024636 57 82 2.6 4.3 0.00 0.00 0.05 92 1008.8
20260508024550 57 59 2.6 4.3 0.00 0.00 0.05 92 1012.5
20260508024136 57 66 2.6 3.5 0.00 0.00 0.05 92 1008.9
20260508024050 57 64 2.6 4.3 0.00 0.00 0.05 92 1012.2
20260508023636 58 86 3.5 3.5 0.00 0.00 0.05 92 1008.9
20260508023552 58 40 2.6 3.5 0.00 0.00 0.05 92 1012.5
20260508023136 58 86 3.5 4.3 0.00 0.00 0.05 92 1008.6
20260508023054 58 53 2.6 6.1 0.00 0.00 0.05 92 1012.2
20260508022636 57 95 2.6 4.3 0.00 0.00 0.05 92 1009.0
20260508022552 57 69 2.6 5.2 0.00 0.00 0.05 92 1012.2
20260508022136 57 75 2.6 3.5 0.00 0.00 0.05 92 1009.0
20260508022050 57 79 2.6 4.3 0.00 0.00 0.05 92 1012.5
20260508021636 57 81 1.7 4.3 0.00 0.00 0.05 92 1008.7
20260508021553 57 99 1.7 3.5 0.00 0.00 0.05 92 1012.2
20260508021136 57 106 0.9 3.5 0.00 0.00 0.05 92 1008.7
20260508021051 57 98 1.7 4.3 0.00 0.00 0.05 92 1012.2
20260508020636 57 180 0.0 3.5 0.00 0.00 0.05 92 1008.9
20260508020550 57 73 0.9 3.5 0.00 0.00 0.05 92 1012.2
20260508020136 57 92 1.7 2.6 0.00 0.00 0.05 92 1008.8
20260508020051 57 107 3.5 3.5 0.00 0.00 0.05 92 1012.2
20260508015636 57 92 1.7 2.6 0.00 0.00 0.05 92 1009.0
20260508015550 57 112 0.9 2.6 0.00 0.00 0.05 92 1012.2
20260508015136 57 52 0.9 2.6 0.00 0.00 0.05 92 1009.0
20260508015050 57 116 0.9 2.6 0.00 0.00 0.05 92 1012.2
20260508014636 57 138 1.7 2.6 0.00 0.00 0.05 91 1009.0
20260508014550 57 165 2.6 2.6 0.00 0.00 0.05 92 1012.5
20260508014136 57 118 2.6 3.5 0.00 0.00 0.05 91 1009.0
20260508014050 57 122 3.5 3.5 0.00 0.00 0.05 91 1012.2
20260508013636 57 111 1.7 2.6 0.00 0.00 0.05 91 1009.0
20260508013551 57 127 2.6 3.5 0.00 0.00 0.05 91 1012.5
20260508013136 57 157 2.6 3.5 0.00 0.00 0.05 91 1009.1
20260508013051 57 174 2.6 3.5 0.00 0.00 0.05 91 1012.2
20260508012636 57 168 0.9 2.6 0.00 0.00 0.05 91 1009.1
20260508012551 57 181 1.7 3.5 0.00 0.00 0.05 91 1012.5
20260508012136 57 136 1.7 3.5 0.00 0.00 0.05 91 1009.2
20260508012050 57 159 0.9 3.5 0.00 0.00 0.05 91 1012.5
20260508011637 57 152 1.7 4.3 0.00 0.00 0.05 91 1009.0
20260508011554 57 79 0.9 4.3 0.00 0.00 0.05 91 1012.5
20260508011136 57 132 1.7 5.2 0.00 0.00 0.05 90 1009.4
20260508011050 57 163 1.7 3.5 0.00 0.00 0.05 90 1012.9
20260508010636 58 119 3.5 4.3 0.00 0.00 0.05 90 1009.4
20260508010551 58 116 2.6 5.2 0.00 0.00 0.05 90 1012.9
20260508010136 58 81 2.6 4.3 0.00 0.00 0.05 90 1009.4
20260508010051 58 110 1.7 4.3 0.00 0.00 0.05 90 1012.5
20260508005636 58 80 2.6 4.3 0.00 0.00 0.05 90 1009.6
20260508005550 58 121 0.9 2.6 0.00 0.00 0.05 90 1012.9
20260508005136 58 92 1.7 5.2 0.01 0.00 0.05 90 1009.5
20260508005052 58 68 2.6 4.3 0.00 0.00 0.05 90 1012.9
20260508004636 58 72 1.7 6.1 0.01 0.00 0.05 90 1009.4
20260508004551 58 101 3.5 5.2 0.00 0.00 0.05 90 1012.9
20260508004136 58 85 5.2 7.0 0.02 0.00 0.05 90 1009.5
20260508004053 58 85 2.6 6.1 0.00 0.00 0.05 90 1012.9
20260508003636 58 56 3.5 6.1 0.02 0.00 0.05 91 1009.5
20260508003550 58 82 4.3 7.0 0.00 0.00 0.05 90 1012.9
20260508003136 58 64 3.5 5.2 0.02 0.00 0.05 91 1009.7
20260508003053 58 50 5.2 6.1 0.00 0.00 0.05 91 1013.2
20260508002636 58 57 3.5 6.1 0.02 0.00 0.05 91 1009.7
20260508002550 58 27 1.7 7.8 0.00 0.00 0.05 91 1012.9
20260508002136 58 83 4.3 6.1 0.03 0.00 0.05 91 1009.8
20260508002051 58 66 3.5 6.1 0.00 0.00 0.05 91 1013.2
20260508001636 58 85 3.5 5.2 0.02 0.00 0.05 91 1009.8
20260508001554 58 101 5.2 6.1 0.00 0.00 0.05 91 1013.2
20260508001136 58 85 3.5 5.2 0.03 0.00 0.05 91 1010.2
20260508001053 58 60 2.6 5.2 0.00 0.00 0.05 91 1013.5
20260508000636 58 80 1.7 6.1 0.04 0.00 0.05 91 1010.1
20260508000553 58 89 4.3 6.1 0.00 0.00 0.05 91 1013.5
20260508000136 58 110 3.5 7.0 0.04 0.00 0.05 91 1010.4
20260508000053 58 95 2.6 7.0 0.00 0.00 0.05 91 1013.5
20260507235637 58 102 2.6 7.0 0.04 0.00 0.05 91 1010.1
20260507235557 58 111 3.5 6.1 0.05 0.00 0.05 91 1013.5
20260507235136 59 102 2.6 7.0 0.04 0.00 0.05 91 1010.3
20260507235055 59 186 0.9 7.0 0.05 0.00 0.05 91 1013.5
20260507234637 59 80 6.1 7.8 0.05 0.00 0.04 91 1010.4
20260507234551 59 71 6.1 7.0 0.00 0.00 0.04 91 1013.5
20260507234137 59 80 3.5 7.8 0.05 0.00 0.04 91 1010.3
20260507234053 59 98 4.3 7.8 0.00 0.00 0.04 91 1013.5
20260507233636 59 100 5.2 6.1 0.05 0.00 0.04 91 1010.4
20260507233551 59 96 6.1 7.8 0.00 0.00 0.04 91 1013.9
20260507233136 59 100 5.2 6.1 0.05 0.00 0.04 91 1010.5
20260507233050 59 71 3.5 8.7 0.07 0.00 0.04 91 1013.9
20260507232637 59 72 8.7 7.8 0.05 0.00 0.04 91 1010.5
20260507232551 59 91 6.1 12.2 0.07 0.00 0.04 91 1013.9
20260507232136 59 87 6.1 9.6 0.05 0.00 0.03 91 1010.6
20260507232051 59 68 2.6 7.8 0.00 0.00 0.03 91 1013.9
20260507231636 59 106 6.1 9.6 0.04 0.00 0.03 91 1010.7
20260507231552 59 98 4.3 7.8 0.00 0.00 0.03 91 1013.9
20260507231136 59 106 6.1 9.6 0.04 0.00 0.03 91 1010.7
20260507231049 59 75 5.2 7.8 0.05 0.00 0.03 91 1013.9
20260507230636 59 78 5.2 10.4 0.04 0.00 0.02 90 1010.7
20260507230553 59 81 3.5 10.4 0.05 0.00 0.03 90 1013.9
20260507230136 59 78 5.2 11.3 0.03 0.00 0.02 90 1010.8
20260507230051 59 98 7.0 11.3 0.00 0.00 0.02 90 1014.2
20260507225637 60 56 5.2 10.4 0.03 0.00 0.02 90 1010.7
20260507225550 60 75 4.3 10.4 0.07 0.00 0.02 90 1013.9
20260507225136 60 96 6.1 8.7 0.02 0.00 0.01 90 1010.7
20260507225051 60 95 7.0 8.7 0.07 0.00 0.02 90 1014.2
20260507224637 60 85 4.3 8.7 0.02 0.00 0.01 90 1010.8
20260507224555 60 60 4.3 7.8 0.05 0.00 0.01 90 1014.2
20260507224136 60 85 4.3 8.7 0.02 0.00 0.00 90 1010.8
20260507224051 60 78 3.5 10.4 0.00 0.00 0.00 90 1014.2
20260507223636 60 89 6.1 8.7 0.02 0.00 0.00 90 1010.7
20260507223550 60 96 7.0 9.6 0.00 0.00 0.00 90 1014.2
20260507223136 60 76 7.0 8.7 0.02 0.00 0.00 90 1010.9
20260507223051 61 83 4.3 7.8 0.00 0.00 0.00 90 1014.2
20260507222637 61 91 4.3 7.8 0.02 0.00 0.00 89 1011.0
20260507222553 61 105 6.1 10.4 0.00 0.00 0.00 90 1014.2
20260507222136 61 91 4.3 7.8 0.02 0.00 0.00 89 1010.8
20260507222051 61 98 6.1 8.7 0.00 0.00 0.00 89 1014.2
20260507221637 61 80 2.6 9.6 0.02 0.00 0.00 89 1011.0
20260507221550 61 84 3.5 6.1 0.00 0.00 0.00 89 1014.2
20260507221136 61 78 2.6 7.8 0.02 0.00 0.00 89 1010.8
20260507221050 61 96 7.0 7.8 0.00 0.00 0.00 89 1014.2
20260507220637 61 87 6.1 7.0 0.02 0.00 0.00 88 1010.7
20260507220552 62 130 4.3 9.6 0.00 0.00 0.00 88 1013.9
20260507220136 62 94 6.1 7.0 0.02 0.00 0.01 87 1010.7
20260507220050 62 96 5.2 7.8 0.00 0.00 0.01 87 1013.9
20260507215636 62 101 6.1 11.3 0.01 0.00 0.01 86 1010.8
20260507215550 62 106 4.3 10.4 0.07 0.00 0.01 86 1014.2
20260507215136 62 101 4.3 9.6 0.01 0.00 0.00 85 1010.9
20260507215052 62 87 3.5 12.2 0.00 0.00 0.00 85 1014.2
20260507214637 62 102 5.2 9.6 0.01 0.00 0.00 85 1010.8
20260507214550 62 79 7.0 10.4 0.00 0.00 0.00 85 1014.2
20260507214136 62 102 5.2 9.6 0.00 0.00 0.00 85 1010.5
20260507214052 62 96 6.1 13.0 0.00 0.00 0.00 84 1014.2
20260507213636 62 47 6.1 8.7 0.00 0.00 0.00 84 1010.8
20260507213553 62 69 2.6 7.8 0.00 0.00 0.00 84 1013.9
20260507213136 62 47 6.1 8.7 0.00 0.00 0.00 84 1010.7
20260507213052 62 69 2.6 5.2 0.00 0.00 0.00 83 1014.2
20260507212636 62 25 1.7 6.1 0.00 0.00 0.00 82 1010.9
20260507212551 62 73 5.2 9.6 0.00 0.00 0.00 83 1013.9
20260507212137 62 25 4.3 6.1 0.00 0.00 0.00 82 1010.5
20260507212053 62 54 4.3 6.1 0.00 0.00 0.00 82 1013.9
20260507211636 62 61 2.6 7.8 0.00 0.00 0.00 82 1010.6
20260507211550 62 81 4.3 7.8 0.00 0.00 0.00 82 1013.9
20260507211136 62 81 3.5 4.3 0.00 0.00 0.00 82 1010.5
20260507211052 62 49 3.5 6.1 0.00 0.00 0.00 82 1013.9
20260507210637 62 65 3.5 4.3 0.00 0.00 0.00 82 1010.5
20260507210551 62 73 1.7 5.2 0.00 0.00 0.00 81 1013.9
20260507210136 62 65 3.5 4.3 0.00 0.00 0.00 81 1010.4
20260507210051 62 65 3.5 4.3 0.00 0.00 0.00 81 1013.5
20260507205636 62 63 3.5 7.8 0.00 0.00 0.00 81 1010.2
20260507205553 62 94 3.5 4.3 0.00 0.00 0.00 81 1013.5
20260507205136 62 37 2.6 6.1 0.00 0.00 0.00 81 1010.2
20260507205053 62 92 1.7 7.8 0.00 0.00 0.00 81 1013.5
20260507204636 62 86 4.3 6.1 0.00 0.00 0.00 81 1010.0
20260507204550 62 69 2.6 5.2 0.00 0.00 0.00 81 1013.5
20260507204136 62 106 1.7 4.3 0.00 0.00 0.00 81 1010.2
20260507204055 62 66 1.7 6.1 0.00 0.00 0.00 81 1013.5
20260507203636 62 106 1.7 4.3 0.00 0.00 0.00 81 1010.1
20260507203552 62 79 1.7 4.3 0.00 0.00 0.00 81 1013.5
20260507203136 62 69 2.6 4.3 0.00 0.00 0.00 80 1010.2
20260507203052 62 85 2.6 7.8 0.00 0.00 0.00 80 1013.5
20260507202636 62 42 3.5 3.5 0.00 0.00 0.00 80 1010.2
20260507202553 62 73 3.5 4.3 0.00 0.00 0.00 80 1013.5
20260507202136 62 42 3.5 3.5 0.00 0.00 0.00 80 1010.2
20260507202052 62 55 2.6 3.5 0.00 0.00 0.00 80 1013.5
20260507201637 62 103 6.1 7.0 0.00 0.00 0.00 79 1010.2
20260507201551 62 83 3.5 4.3 0.00 0.00 0.00 79 1013.5
20260507201136 62 110 3.5 5.2 0.00 0.00 0.00 78 1010.3
20260507201051 62 80 3.5 5.2 0.00 0.00 0.00 79 1013.5
20260507200636 62 118 0.0 7.0 0.00 0.00 0.00 78 1010.0
20260507200553 62 93 2.6 5.2 0.00 0.00 0.00 78 1013.5
20260507200136 62 118 2.6 7.0 0.00 0.00 0.00 78 1010.1
20260507200053 62 81 2.6 6.1 0.00 0.00 0.00 78 1013.2
20260507195636 62 98 2.6 5.2 0.00 0.00 0.00 78 1009.8
20260507195552 62 98 3.5 5.2 0.00 0.00 0.00 78 1013.2
20260507195136 62 77 3.5 3.5 0.00 0.00 0.00 77 1009.9
20260507195052 62 108 2.6 4.3 0.00 0.00 0.00 77 1013.2
20260507194636 62 77 3.5 3.5 0.00 0.00 0.00 77 1009.8
20260507194554 62 92 1.7 2.6 0.00 0.00 0.00 77 1013.2
20260507194136 62 189 1.7 2.6 0.00 0.00 0.00 77 1009.8
20260507194053 62 109 1.7 6.1 0.00 0.00 0.00 77 1013.2
20260507193636 62 107 4.3 5.2 0.00 0.00 0.00 77 1009.6
20260507193552 62 132 2.6 5.2 0.00 0.00 0.00 77 1012.9
20260507193136 62 123 2.6 4.3 0.00 0.00 0.00 78 1009.5
20260507193054 62 111 4.3 6.1 0.00 0.00 0.00 78 1012.9
20260507192636 62 123 2.6 4.3 0.00 0.00 0.00 78 1009.4
20260507192553 62 64 0.9 5.2 0.00 0.00 0.00 78 1012.9
20260507192136 62 57 2.6 6.1 0.00 0.00 0.00 77 1009.2
20260507192051 62 85 3.5 6.1 0.00 0.00 0.00 77 1012.5
20260507191636 62 60 1.7 5.2 0.00 0.00 0.00 77 1009.3
20260507191550 62 61 2.6 4.3 0.00 0.00 0.00 77 1012.5
20260507191136 62 53 3.5 7.0 0.00 0.00 0.00 77 1009.1
20260507191051 62 58 2.6 7.0 0.00 0.00 0.00 77 1012.5
20260507190636 62 91 4.3 7.0 0.00 0.00 0.00 77 1008.9
20260507190551 62 47 3.5 7.0 0.00 0.00 0.00 77 1012.2
20260507190136 62 91 4.3 5.2 0.00 0.00 0.00 77 1008.8
20260507190051 62 79 4.3 5.2 0.00 0.00 0.00 77 1012.2
20260507185636 62 44 2.6 8.7 0.00 0.00 0.00 78 1008.8
20260507185552 62 79 4.3 7.8 0.00 0.00 0.00 78 1012.2
20260507185136 62 54 2.6 5.2 0.00 0.00 0.00 78 1008.6
20260507185052 62 80 7.0 8.7 0.00 0.00 0.00 78 1012.2
20260507184636 62 58 3.5 5.2 0.00 0.00 0.00 78 1008.9
20260507184551 62 79 3.5 7.8 0.00 0.00 0.00 77 1012.2
20260507184136 62 49 2.6 5.2 0.00 0.00 0.00 77 1009.0
20260507184051 62 70 5.2 7.0 0.00 0.00 0.00 77 1012.2
20260507183636 62 71 1.7 7.0 0.00 0.00 0.00 77 1008.9
20260507183553 62 78 2.6 6.1 0.00 0.00 0.00 77 1012.2
20260507183136 62 46 2.6 4.3 0.00 0.00 0.00 77 1008.9
20260507183053 62 73 3.5 7.0 0.00 0.00 0.00 77 1012.2
20260507182636 62 77 4.3 10.4 0.00 0.00 0.00 76 1008.8
20260507182551 62 52 3.5 8.7 0.00 0.00 0.00 77 1012.2
20260507182136 62 52 5.2 10.4 0.00 0.00 0.00 76 1008.7
20260507182050 62 92 4.3 10.4 0.00 0.00 0.00 76 1012.2
20260507181637 62 52 2.6 7.8 0.00 0.00 0.00 76 1008.7
20260507181550 62 56 3.5 7.8 0.00 0.00 0.00 76 1012.2
20260507181136 62 78 4.3 7.8 0.00 0.00 0.00 76 1008.7
20260507181052 62 80 8.7 9.6 0.00 0.00 0.00 76 1012.2
20260507180636 62 67 6.1 9.6 0.00 0.00 0.00 76 1008.7
20260507180554 62 72 5.2 7.8 0.00 0.00 0.00 76 1012.2
20260507180136 62 67 6.1 9.6 0.00 0.00 0.00 76 1008.7
20260507180053 62 66 4.3 8.7 0.00 0.00 0.00 76 1012.2
20260507175636 62 82 2.6 7.8 0.00 0.00 0.00 76 1008.7
20260507175555 62 37 2.6 8.7 0.00 0.00 0.00 76 1011.9
20260507175136 62 71 5.2 10.4 0.00 0.00 0.00 76 1008.7
20260507175052 62 74 3.5 9.6 0.00 0.00 0.00 76 1011.9
20260507174636 62 66 5.2 9.6 0.00 0.00 0.00 79 1008.7
20260507174552 62 75 5.2 9.6 0.00 0.00 0.00 77 1012.2
20260507174136 62 75 5.2 9.6 0.00 0.00 0.00 80 1008.6
20260507174052 62 42 4.3 7.0 0.00 0.00 0.00 79 1011.9
20260507173636 62 67 7.0 11.3 0.00 0.00 0.00 81 1008.5
20260507173551 62 64 3.5 9.6 0.00 0.00 0.00 80 1011.9
20260507173136 62 67 7.8 11.3 0.00 0.00 0.00 81 1008.9
20260507173053 62 81 4.3 9.6 0.00 0.00 0.00 81 1011.9
20260507172636 62 83 7.8 8.7 0.00 0.00 0.00 81 1008.9
20260507172552 62 76 6.1 8.7 0.00 0.00 0.00 81 1012.2
20260507172136 62 70 4.3 11.3 0.00 0.00 0.00 81 1008.8
20260507172052 62 59 4.3 8.7 0.00 0.00 0.00 81 1012.2
20260507171636 62 62 5.2 9.6 0.00 0.00 0.00 81 1008.8
20260507171552 62 40 6.1 11.3 0.00 0.00 0.00 81 1012.2
20260507171136 62 77 5.2 10.4 0.00 0.00 0.00 80 1008.7
20260507171051 62 73 3.5 7.8 0.00 0.00 0.00 81 1012.2
20260507170636 62 75 5.2 9.6 0.00 0.00 0.00 80 1008.8
20260507170554 62 68 7.8 7.8 0.00 0.00 0.00 81 1012.2
20260507170136 62 81 6.1 8.7 0.01 0.00 0.00 81 1008.9
20260507170053 62 72 5.2 8.7 0.00 0.00 0.00 80 1012.2
20260507165636 62 81 4.3 8.7 0.01 0.00 0.00 81 1008.7
20260507165553 62 84 5.2 7.0 0.00 0.00 0.00 81 1012.2
20260507165136 62 31 4.3 7.8 0.01 0.00 0.00 79 1008.8
20260507165052 62 60 4.3 8.7 0.00 0.00 0.00 80 1012.2
20260507164636 62 88 4.3 8.7 0.01 0.00 0.00 78 1008.8
20260507164552 62 68 6.1 7.8 0.00 0.00 0.00 79 1012.2
20260507164136 62 39 3.5 4.3 0.01 0.00 0.00 78 1008.5
20260507164054 62 74 5.2 8.7 0.00 0.00 0.00 78 1012.2
20260507163636 62 78 4.3 8.7 0.01 0.00 0.00 79 1008.8
20260507163552 62 52 2.6 6.1 0.00 0.00 0.00 78 1012.2
20260507163137 62 78 4.3 8.7 0.02 0.00 0.00 79 1009.0
20260507163052 62 82 4.3 8.7 0.00 0.00 0.00 79 1012.2
20260507162636 62 19 2.6 4.3 0.02 0.00 0.00 80 1008.8
20260507162550 62 80 2.6 6.1 0.00 0.00 0.00 80 1012.2
20260507162136 62 87 2.6 5.2 0.02 0.00 0.00 80 1008.8
20260507162053 62 57 2.6 4.3 0.00 0.00 0.00 80 1012.2
20260507161636 62 65 3.5 7.0 0.02 0.00 0.00 80 1008.7
20260507161552 62 78 1.7 5.2 0.00 0.00 0.00 80 1012.2
20260507161136 63 86 3.5 6.1 0.01 0.00 0.00 78 1008.9
20260507161056 63 112 4.3 7.8 0.00 0.00 0.00 79 1012.2
20260507160636 63 108 3.5 5.2 0.01 0.00 0.00 78 1008.8
20260507160553 63 95 5.2 7.0 0.00 0.00 0.00 78 1012.2
20260507160136 63 124 1.7 3.5 0.01 0.00 0.00 78 1009.0
20260507160052 63 107 5.2 5.2 0.00 0.00 0.00 78 1012.2
20260507155636 64 145 2.6 7.0 0.01 0.00 0.00 76 1008.7
20260507155553 64 68 2.6 4.3 0.00 0.00 0.00 78 1012.2
20260507155136 64 128 3.5 4.3 0.01 0.00 0.00 75 1008.8
20260507155053 64 108 6.1 7.0 0.00 0.00 0.00 76 1012.2
20260507154636 64 131 3.5 9.6 0.00 0.00 0.00 75 1008.9
20260507154552 64 163 1.7 4.3 0.00 0.00 0.00 75 1012.2
20260507154136 64 139 6.1 8.7 0.00 0.00 0.00 72 1008.8
20260507154053 65 126 6.1 7.8 0.00 0.00 0.00 73 1012.2
20260507153637 65 119 6.1 8.7 0.00 0.00 0.00 72 1008.7
20260507153553 65 125 3.5 8.7 0.00 0.00 0.00 71 1012.2
20260507153136 66 114 1.7 6.1 0.00 0.00 0.00 70 1008.8
20260507153053 66 134 4.3 6.1 0.00 0.00 0.00 69 1012.2
20260507152636 66 65 7.0 7.8 0.00 0.00 0.00 65 1008.8
20260507152552 66 108 3.5 7.8 0.00 0.00 0.00 66 1012.2
20260507152136 65 97 4.3 6.1 0.00 0.00 0.00 65 1009.0
20260507152052 66 79 3.5 9.6 0.00 0.00 0.00 65 1012.5
20260507151636 65 86 7.8 10.4 0.00 0.00 0.00 65 1008.9
20260507151553 65 79 5.2 7.8 0.00 0.00 0.00 65 1012.2
20260507151136 65 86 4.3 10.4 0.00 0.00 0.00 68 1008.9
20260507151052 66 61 4.3 11.3 0.00 0.00 0.00 70 1012.5
20260507150636 66 108 4.3 9.6 0.00 0.00 0.00 73 1008.8
20260507150553 66 114 5.2 9.6 0.00 0.00 0.00 73 1012.2
20260507150136 66 107 2.6 7.8 0.00 0.00 0.00 72 1008.9
20260507150052 66 91 4.3 11.3 0.00 0.00 0.00 72 1012.2
20260507145636 66 157 7.0 9.6 0.00 0.00 0.00 71 1008.8
20260507145552 66 136 5.2 10.4 0.00 0.00 0.00 71 1012.5
20260507145136 66 111 5.2 12.2 0.00 0.00 0.00 69 1008.7
20260507145053 66 96 6.1 8.7 0.00 0.00 0.00 70 1012.2
20260507144636 67 111 5.2 12.2 0.00 0.00 0.00 69 1008.9
20260507144552 67 105 5.2 11.3 0.00 0.00 0.00 69 1012.2
20260507144136 67 100 4.3 9.6 0.00 0.00 0.00 68 1008.9
20260507144053 67 143 6.1 12.2 0.00 0.00 0.00 68 1012.2
20260507143637 67 95 2.6 13.0 0.00 0.00 0.00 67 1008.8
20260507143553 68 108 9.6 13.0 0.00 0.00 0.00 67 1012.2
20260507143136 68 95 6.1 8.7 0.00 0.00 0.00 65 1008.8
20260507143053 68 121 5.2 10.4 0.00 0.00 0.00 64 1012.2
20260507142637 68 104 7.0 8.7 0.00 0.00 0.00 63 1009.0
20260507142555 68 133 3.5 8.7 0.00 0.00 0.00 63 1012.2
20260507142136 68 110 9.6 8.7 0.00 0.00 0.00 62 1008.7
20260507142053 68 117 5.2 8.7 0.00 0.00 0.00 62 1012.2
20260507141636 68 108 8.7 9.6 0.00 0.00 0.00 63 1008.8
20260507141551 68 106 7.8 13.9 0.00 0.00 0.00 64 1012.2
20260507141136 69 99 7.8 10.4 0.00 0.00 0.00 64 1009.0
20260507141053 68 120 2.6 9.6 0.00 0.00 0.00 64 1012.5
20260507140636 68 87 5.2 10.4 0.00 0.00 0.00 64 1009.0
20260507140552 68 104 7.8 10.4 0.00 0.00 0.00 64 1012.5
20260507140136 69 71 5.2 11.3 0.00 0.00 0.00 62 1008.9
20260507140053 69 98 5.2 11.3 0.00 0.00 0.00 62 1012.5
20260507135636 69 71 7.0 11.3 0.00 0.00 0.00 62 1008.8
20260507135552 69 85 6.1 11.3 0.00 0.00 0.00 62 1012.5
20260507135136 68 80 7.0 9.6 0.00 0.00 0.00 61 1009.3
20260507135053 69 76 5.2 9.6 0.00 0.00 0.00 61 1012.9
20260507134636 69 75 7.8 12.2 0.00 0.00 0.00 61 1009.1
20260507134552 69 79 4.3 13.0 0.00 0.00 0.00 61 1012.2
20260507134136 69 111 5.2 8.7 0.00 0.00 0.00 62 1008.8
20260507134052 69 46 3.5 9.6 0.00 0.00 0.00 62 1012.2
20260507133636 69 111 5.2 8.7 0.00 0.00 0.00 62 1009.0
20260507133552 69 79 7.0 9.6 0.00 0.00 0.00 62 1012.5
20260507133136 69 45 4.3 9.6 0.00 0.00 0.00 61 1009.2
20260507133050 69 104 3.5 6.1 0.00 0.00 0.00 61 1012.5
20260507132637 69 68 4.3 12.2 0.00 0.00 0.00 61 1009.2
20260507132551 69 109 4.3 7.8 0.00 0.00 0.00 61 1012.5
20260507132136 69 180 1.7 9.6 0.00 0.00 0.00 60 1009.3
20260507132057 69 76 1.7 12.2 0.00 0.00 0.00 61 1012.9
20260507131636 69 180 1.7 9.6 0.00 0.00 0.00 60 1009.1
20260507131553 69 67 1.7 10.4 0.00 0.00 0.00 60 1012.9
20260507131136 69 76 6.1 8.7 0.00 0.00 0.00 59 1009.5
20260507131054 69 113 1.7 8.7 0.00 0.00 0.00 59 1012.9
20260507130636 69 67 6.1 7.8 0.00 0.00 0.00 60 1009.5
20260507130553 69 92 7.8 7.8 0.00 0.00 0.00 60 1012.9
20260507130136 69 85 3.5 8.7 0.00 0.00 0.00 60 1009.4
20260507130052 69 102 6.1 10.4 0.00 0.00 0.00 59 1012.9
20260507125636 68 79 5.2 9.6 0.00 0.00 0.00 60 1009.3
20260507125555 69 83 4.3 11.3 0.00 0.00 0.00 60 1012.9
20260507125136 69 79 5.2 9.6 0.00 0.00 0.00 60 1009.4
20260507125052 69 82 7.0 9.6 0.00 0.00 0.00 60 1012.9
20260507124636 69 64 7.8 12.2 0.00 0.00 0.00 58 1009.3
20260507124552 69 84 10.4 13.9 0.00 0.00 0.00 59 1012.9
20260507124136 69 50 7.0 12.2 0.00 0.00 0.00 58 1009.3
20260507124051 69 118 4.3 11.3 0.00 0.00 0.00 58 1012.5
20260507123636 69 50 7.0 9.6 0.00 0.00 0.00 57 1009.3
20260507123552 69 44 7.8 9.6 0.00 0.00 0.00 57 1012.9
20260507123136 69 88 4.3 10.4 0.00 0.00 0.00 59 1009.3
20260507123052 69 42 7.0 10.4 0.00 0.00 0.00 59 1012.9
20260507122636 69 88 9.6 10.4 0.00 0.00 0.00 59 1009.4
20260507122553 69 98 5.2 10.4 0.00 0.00 0.00 59 1012.9
20260507122136 69 102 9.6 11.3 0.00 0.00 0.00 58 1009.6
20260507122053 69 82 6.1 11.3 0.00 0.00 0.00 58 1012.9
20260507121636 68 85 4.3 7.8 0.00 0.00 0.00 58 1009.8
20260507121552 68 70 4.3 10.4 0.00 0.00 0.00 58 1012.9
20260507121136 68 85 5.2 8.7 0.00 0.00 0.00 56 1009.6
20260507121051 69 89 7.0 11.3 0.00 0.00 0.00 57 1012.9
20260507120636 68 85 7.8 8.7 0.00 0.00 0.00 56 1009.6
20260507120550 68 34 1.7 8.7 0.00 0.00 0.00 56 1012.9
20260507120136 68 96 9.6 10.4 0.00 0.00 0.00 56 1009.6
20260507120052 68 61 7.8 11.3 0.00 0.00 0.00 57 1013.2
20260507115636 68 96 9.6 10.4 0.00 0.00 0.00 56 1009.7
20260507115553 68 69 6.1 11.3 0.00 0.00 0.00 56 1013.2
20260507115136 68 46 4.3 8.7 0.00 0.00 0.00 57 1010.0
20260507115050 68 71 5.2 14.8 0.00 0.00 0.00 57 1013.5
20260507114636 68 46 7.0 8.7 0.00 0.00 0.00 60 1009.9
20260507114552 68 68 5.2 12.2 0.00 0.00 0.00 60 1013.2
20260507114136 68 75 7.8 13.0 0.00 0.00 0.00 59 1010.1
20260507114053 68 66 2.6 13.9 0.00 0.00 0.00 59 1013.5
20260507113636 68 66 6.1 13.0 0.00 0.00 0.00 60 1010.1
20260507113553 68 86 8.7 13.0 0.00 0.00 0.00 59 1013.5
20260507113136 68 80 9.6 11.3 0.00 0.00 0.00 60 1010.2
20260507113053 67 137 3.5 13.0 0.00 0.00 0.00 60 1013.5
20260507112637 67 80 9.6 11.3 0.00 0.00 0.00 60 1010.1
20260507112552 67 94 7.8 9.6 0.00 0.00 0.00 60 1013.5
20260507112136 68 107 8.7 11.3 0.00 0.00 0.00 60 1010.5
20260507112052 68 44 6.1 12.2 0.00 0.00 0.00 59 1013.9
20260507111636 67 107 8.7 11.3 0.00 0.00 0.00 60 1010.3
20260507111553 67 89 4.3 8.7 0.00 0.00 0.00 61 1013.5
20260507111136 67 84 3.5 7.8 0.00 0.00 0.00 62 1010.5
20260507111053 67 80 2.6 11.3 0.00 0.00 0.00 61 1013.5
20260507110636 67 95 7.8 11.3 0.00 0.00 0.00 61 1010.5
20260507110556 67 54 5.2 10.4 0.00 0.00 0.00 61 1013.9
20260507110136 67 120 7.0 10.4 0.00 0.00 0.00 62 1010.5
20260507110052 67 101 6.1 11.3 0.00 0.00 0.00 61 1013.9
20260507105636 67 88 4.3 10.4 0.00 0.00 0.00 61 1010.4
20260507105554 67 124 7.8 11.3 0.00 0.00 0.00 62 1013.9
20260507105136 67 113 7.8 9.6 0.00 0.00 0.00 61 1010.7
20260507105052 67 78 8.7 10.4 0.00 0.00 0.00 61 1014.2